IDEASSAT (47458 NORAD) Tracking and Keplerian Element Data

This shows tracking and keplerian element data for the satellite.

Feedback or suggestion? Click here.




ElementValue
Catalog47458
NameIDEASSAT
Epoch Orbit1199
Epoch Day101.93253698
Epoch Year2021
RAAN164.3626
Inclination97.5003
Eccentricity0.0010627
Argument of Perigee337.2881
Mean Anonmoly22.7879
Mean Motion15.12696499
Decay Rate7.79E-06
L11 47458U 21006AX 21101.93253698 .00000779 00000-0 48181-4 0 9996
L22 47458 97.5003 164.3626 0010627 337.2881 22.7879 15.12696499 11997

Live tracking and technical data element details for IDEASSAT (NORAD 47458). IDEASSAT can be tracked NOW for your location showing map with azimuth and elevation plus other details from your city location.

Track the satellite on the map from your city or location and see movement details for azimuth, elevation, latitude, longitude, range, height, and movement on the map or in text.







IsCatalogInMostPopularTable: catalog: 47458, numindb: 16
Update: records affected: 1



GetName: 47458 IDEASSAT

Hit Count: updated at: Tue, 13 Apr 2021 05:14:23 GMT